DateTimeUTC,F1_A11,F1_S11,BsB_S11,BsG_S11,BsR_S11,BbsB_S11,BbsG_S11,BbsR_S11,BaB_A11,BaG_A11,BaR_A11,Tu_S11,T_S11,Uu_S11,U_S11,P_S11,T1_A11
2021-09-04T13:00:00Z,00000200,21000000,,,,,,,-000.30,0000.12,-000.31,18.8,25.2,,00.0,0666.2,31.0
2021-09-04T13:01:00Z,00000200,21000000,,,,,,,0000.34,-000.07,-000.13,18.8,25.3,,00.0,0666.2,31.0
2021-09-04T13:02:00Z,00000200,21000000,,,,,,,-000.14,0000.24,0000.51,18.8,25.3,,00.0,0666.2,31.0
2021-09-04T13:03:00Z,00000200,61000000,,,,,,,0000.85,0000.54,0000.31,18.8,25.3,,00.0,0666.2,31.0
2021-09-04T13:04:00Z,00000200,41000000,0005.15,0004.11,0002.82,0000.81,0000.39,0000.57,0001.13,0000.78,0000.62,18.9,25.2,00.0,00.0,0667.2,31.0
2021-09-04T13:05:00Z,00000200,01000000,0005.19,0003.97,0002.70,0001.09,0000.74,0000.79,0000.94,0001.09,0000.78,19.0,25.1,00.0,00.0,0667.2,31.0
2021-09-04T13:06:00Z,00000200,01000000,0004.20,0004.28,0002.68,0000.35,0000.75,0000.22,0001.16,0001.15,0000.80,19.0,25.1,00.0,00.0,0667.2,31.0
2021-09-04T13:07:00Z,00000200,01000000,0005.09,0003.99,0002.59,0001.03,0000.49,0000.32,0000.79,0000.57,0000.68,19.0,25.1,00.0,00.0,0667.2,31.0
2021-09-04T13:08:00Z,00000200,01000000,0004.57,0004.54,0002.51,0000.47,0000.66,0000.33,0001.46,0001.60,0001.18,19.0,25.1,00.0,00.0,0667.2,31.0
2021-09-04T13:09:00Z,00000200,01000000,0005.26,0004.08,0002.63,0000.59,0000.62,0000.41,0002.09,0001.90,0001.53,19.0,25.1,00.1,00.1,0667.2,31.0
2021-09-04T13:10:00Z,00000200,01000000,0004.81,0004.12,0002.87,0000.93,0000.49,0000.35,0002.01,0001.93,0001.08,18.9,25.1,00.2,00.2,0667.2,31.0
2021-09-04T13:11:00Z,00000200,01000000,0006.65,0005.84,0004.01,0000.98,0000.55,0000.20,0001.98,0001.30,0001.52,18.9,25.1,00.5,00.3,0667.2,31.0
2021-09-04T13:12:00Z,00000200,01000000,0007.55,0006.47,0004.11,0001.09,0000.91,0000.21,0001.63,0001.67,0001.38,18.9,25.1,00.7,00.5,0667.2,31.0
2021-09-04T13:13:00Z,00000200,01000000,0006.80,0005.40,0003.67,0001.29,0000.47,0000.23,0001.80,0001.85,0001.06,19.0,25.1,00.6,00.4,0667.2,31.0
2021-09-04T13:14:00Z,00000200,01000000,0005.20,0004.22,0002.99,0000.86,0000.36,0000.27,0000.47,0000.32,0000.60,19.1,25.1,00.5,00.3,0667.2,31.0
2021-09-04T13:15:00Z,00000200,01000000,0004.60,0003.61,0002.86,0001.33,0000.66,0000.06,0000.92,0000.68,0000.43,19.2,25.2,00.2,00.1,0667.2,31.1
2021-09-04T13:16:00Z,00000200,01000000,0004.64,0003.61,0002.74,0001.05,0000.39,0000.27,0000.64,0000.62,0000.62,19.3,25.2,00.2,00.1,0667.2,31.1
2021-09-04T13:17:00Z,00000200,01000000,0004.91,0003.48,0002.75,0000.53,0000.54,0000.60,0000.94,0001.13,0000.96,19.3,25.2,00.1,00.1,0667.2,31.1
2021-09-04T13:18:00Z,00000200,01000000,0004.15,0004.03,0002.89,0000.81,0000.52,0000.20,0001.30,0001.28,0000.82,19.3,25.3,00.1,00.1,0667.2,31.1
2021-09-04T13:19:00Z,00000200,01000000,0005.56,0004.56,0003.06,0001.25,0000.60,0000.36,0002.16,0001.78,0001.55,19.3,25.2,00.2,00.1,0667.2,31.0
2021-09-04T13:20:00Z,00000200,01000000,0005.71,0003.98,0002.89,0001.58,0000.69,0000.46,0001.10,0000.98,0000.67,19.3,25.2,00.4,00.3,0667.3,31.0
2021-09-04T13:21:00Z,00000200,01000000,0005.10,0003.91,0003.06,0000.77,0000.74,0000.28,0000.90,0001.38,0000.71,19.2,25.2,00.3,00.2,0667.3,31.0
2021-09-04T13:22:00Z,00000200,01000000,0005.16,0004.35,0002.88,0000.69,0000.64,0000.26,0001.55,0000.98,0001.15,19.2,25.2,00.3,00.2,0667.2,31.0
2021-09-04T13:23:00Z,00000200,01000000,0005.04,0004.42,0002.59,0000.80,0000.57,0000.20,0001.33,0001.22,0000.74,19.2,25.2,00.5,00.3,0667.3,31.0
2021-09-04T13:24:00Z,00000200,01000000,0005.69,0004.25,0003.01,0000.65,0000.49,0000.24,0000.93,0001.19,0000.73,19.2,25.2,00.5,00.3,0667.2,31.0
2021-09-04T13:25:00Z,00000200,01000000,0004.76,0003.67,0002.71,0000.88,0000.11,0000.29,0001.34,0000.64,0001.14,19.2,25.2,00.5,00.3,0667.3,31.0
2021-09-04T13:26:00Z,00000200,01000000,0004.95,0003.55,0002.71,0000.71,0000.49,0000.07,0000.92,0001.34,0000.63,19.2,25.2,00.6,00.4,0667.2,31.0
2021-09-04T13:27:00Z,00000200,01000000,0004.43,0003.72,0002.94,0000.89,0000.39,0000.56,0001.29,0000.79,0000.67,19.2,25.2,00.4,00.3,0667.2,31.0
2021-09-04T13:28:00Z,00000200,01000000,0005.17,0003.20,0002.51,0000.51,0000.53,0000.19,0000.80,0000.90,0000.82,19.2,25.2,00.5,00.3,0667.2,31.0
2021-09-04T13:29:00Z,00000200,01000000,0003.37,0003.76,0002.44,0000.44,0000.42,0000.47,0000.70,0000.81,0000.51,19.3,25.2,00.4,00.3,0667.2,31.0
2021-09-04T13:30:00Z,00000200,01000000,0005.21,0003.35,0002.38,0001.47,0000.56,0000.57,0001.13,0000.86,0000.91,19.3,25.3,00.5,00.3,0667.3,31.0
2021-09-04T13:31:00Z,00000200,01000000,0004.27,0003.00,0001.74,0001.21,0000.30,0000.05,0000.94,0000.77,0000.82,19.3,25.3,00.5,00.3,0667.3,31.1
2021-09-04T13:32:00Z,00000200,01000000,0003.40,0002.99,0002.44,0000.93,0000.48,0000.32,0000.68,0000.76,0000.46,19.3,25.3,00.5,00.3,0667.2,31.1
2021-09-04T13:33:00Z,00000200,01000000,0003.45,0003.32,0001.75,0000.79,0000.64,0000.32,0001.19,0001.30,0000.43,19.3,25.3,00.6,00.4,0667.2,31.1
2021-09-04T13:34:00Z,00000200,01000000,0004.30,0002.56,0001.73,0000.60,0000.39,0000.04,0001.05,0000.33,0000.71,19.3,25.3,00.6,00.4,0667.2,31.1
2021-09-04T13:35:00Z,00000200,01000000,0003.56,0002.55,0001.69,0000.86,0000.29,0000.41,0000.46,0000.74,0000.77,19.3,25.3,00.6,00.4,0667.2,31.1
2021-09-04T13:36:00Z,00000200,01000000,0003.73,0002.56,0001.65,0000.60,0000.35,0000.31,0000.78,0000.74,0000.40,19.3,25.3,00.7,00.5,0667.2,31.1
2021-09-04T13:37:00Z,00000200,01000000,0003.42,0002.46,0001.48,0000.69,0000.28,-000.07,0000.86,0000.64,0000.56,19.2,25.3,00.8,00.5,0667.2,31.0
2021-09-04T13:38:00Z,00000200,01000000,0003.84,0002.53,0001.49,0001.03,0000.18,0000.00,0000.48,0000.46,0000.43,19.2,25.3,00.6,00.4,0667.2,31.0
2021-09-04T13:39:00Z,00000200,01000000,0003.98,0002.93,0001.88,0000.99,0000.34,0000.05,0000.82,0000.95,0000.57,19.2,25.3,00.7,00.5,0667.2,31.0
2021-09-04T13:40:00Z,00000200,01000000,0003.36,0002.88,0001.34,0000.44,0000.41,0000.09,0000.25,0000.41,0000.46,19.2,25.3,00.7,00.5,0667.2,31.0
2021-09-04T13:41:00Z,00000200,01000000,0003.94,0002.56,0001.61,0000.74,0000.11,0000.06,0001.22,0000.72,0000.36,19.2,25.3,00.6,00.4,0667.2,31.0
2021-09-04T13:42:00Z,00000200,01000000,0003.06,0002.59,0002.00,0000.70,0000.35,0000.27,0000.24,0000.51,0000.73,19.2,25.3,00.7,00.5,0667.2,31.0
2021-09-04T13:43:00Z,00000200,01000000,0003.79,0002.74,0001.54,0000.51,0000.38,0000.20,0000.97,0000.92,0000.29,19.2,25.3,00.6,00.4,0667.2,31.0
2021-09-04T13:44:00Z,00000200,01000000,0004.05,0002.69,0001.42,0000.37,0000.24,-000.14,0000.87,0000.43,0000.79,19.3,25.3,00.7,00.5,0667.2,31.1
2021-09-04T13:45:00Z,00000200,01000000,0003.24,0002.51,0001.94,0001.38,0000.43,0000.49,0000.52,0000.99,0000.30,19.4,25.3,00.6,00.4,0667.2,31.1
2021-09-04T13:46:00Z,00000200,01000000,0003.46,0002.77,0001.09,0000.77,0000.12,0000.08,0000.75,0000.27,0000.73,19.4,25.3,00.6,00.4,0667.2,31.1
2021-09-04T13:47:00Z,00000200,01000000,0003.35,0002.11,0001.72,0000.14,0000.05,0000.06,0000.81,0000.91,0000.44,19.4,25.4,00.6,00.4,0667.2,31.1
2021-09-04T13:48:00Z,00000200,01000000,0003.36,0002.19,0001.33,-000.02,0000.23,0000.19,0000.47,0000.80,0000.58,19.4,25.4,00.6,00.5,0667.2,31.1
2021-09-04T13:49:00Z,00000200,01000000,0002.89,0002.02,0001.28,0000.91,0000.38,0000.11,0000.96,0000.44,0000.36,19.4,25.3,00.8,00.6,0667.2,31.0
2021-09-04T13:50:00Z,00000200,01000000,0002.66,0002.10,0001.47,0000.79,0000.12,0000.19,0000.51,0000.71,0000.53,19.3,25.3,00.8,00.5,0667.2,31.0
2021-09-04T13:51:00Z,00000200,01000000,0002.67,0002.19,0001.51,0000.52,0000.35,0000.07,0000.64,0000.51,0000.33,19.3,25.4,00.7,00.5,0667.2,31.0
2021-09-04T13:52:00Z,00000200,01000000,0003.16,0002.22,0001.22,0000.29,0000.39,0000.13,0000.62,0000.61,0000.34,19.3,25.4,00.7,00.5,0667.2,31.0
2021-09-04T13:53:00Z,00000200,01000000,0002.00,0001.77,0001.24,0000.76,0000.30,0000.11,0000.85,0000.34,0000.50,19.3,25.3,00.9,00.6,0667.2,31.0
2021-09-04T13:54:00Z,00000200,01000000,0002.12,0002.23,0001.25,0000.69,0000.13,0000.18,0000.37,0000.36,0000.26,19.3,25.3,00.9,00.6,0667.2,31.0
2021-09-04T13:55:00Z,00000200,01000000,0002.26,0001.89,0001.22,0000.39,0000.22,0000.34,0000.55,0000.70,0000.76,19.3,25.3,00.8,00.6,0667.2,31.0
2021-09-04T13:56:00Z,00000200,01000000,0002.89,0001.68,0001.26,0000.50,0000.32,-000.04,0000.47,0000.78,0000.26,19.3,25.3,00.9,00.6,0667.2,31.0
2021-09-04T13:57:00Z,00000200,41000000,,,,,,,-000.33,-000.57,-000.34,19.3,25.4,01.6,01.1,0667.2,31.0
2021-09-04T13:58:00Z,00000200,61000000,,,,,,,0000.16,0000.14,0000.28,19.0,25.4,00.6,00.4,0666.2,31.0
2021-09-04T13:59:00Z,00000200,21000000,,,,,,,-000.04,0000.26,-000.07,19.0,25.5,00.6,00.4,0666.2,31.0
